CW5072 Palm Harbor FL US current weather conditions

sailwx.info

Wind from 244

Air temperature 21.7° C
Dewpoint 21.3° C

Last reported at 2018-Dec-14 18:03 UTC.
Time now 2018-Dec-14 18:58 UTC

Location: N 28°05' W 082°43'.
View on Google Maps.

See reports from other nearby stations

  
Tides and Currents Weather Stations Pressure Air Temp Water Temp Dewpoint Dewpoint Depression Visibility Wind Speed Wind Dir Waves Ship Positions
date/time (UTC)wind fromknots sea level pressurealtimeterstation pressurevisibilityair tempwater tempwave heightnotes
2018-Dec-14 18:03 244 21.7
2018-Dec-14 17:53 199 21.1
2018-Dec-14 17:43 161 21.1
2018-Dec-14 17:33 154 20.6
2018-Dec-14 17:23 162 20.6
2018-Dec-14 17:13 163 20.6
2018-Dec-14 17:03 206 20.6
2018-Dec-14 16:53 234 20.0
2018-Dec-14 16:43 234 20.0
2018-Dec-14 16:33 234 20.0
2018-Dec-14 16:23 234 20.0
2018-Dec-14 16:13 171 20.0
2018-Dec-14 16:03 171 20.0
2018-Dec-14 15:53 171 20.0
2018-Dec-14 15:43 171 20.0
2018-Dec-14 15:33 185 20.0
2018-Dec-14 15:23 192 20.0
2018-Dec-14 15:13 188 20.0
2018-Dec-14 15:03 171 20.0
2018-Dec-14 14:53 207 1 gusting 5 20.0
2018-Dec-14 14:43 217 1 gusting 4 20.0
2018-Dec-14 14:33 223 20.0
2018-Dec-14 14:23 203 20.0
2018-Dec-14 14:13 182 20.0
2018-Dec-14 14:03 212 20.0
2018-Dec-14 13:53 184 20.6
2018-Dec-14 13:43 214 20.6
2018-Dec-14 13:33 208 20.6
2018-Dec-14 13:23 203 21.1
2018-Dec-14 13:13 194 21.1
2018-Dec-14 13:03 220 21.1
2018-Dec-14 12:53 171 21.1
2018-Dec-14 12:43 246 21.1
2018-Dec-14 12:33 220 21.1
2018-Dec-14 12:23 228 21.1
2018-Dec-14 12:13 240 21.1
2018-Dec-14 12:03 192 21.1
2018-Dec-14 11:53 219 21.1
2018-Dec-14 11:43 221 21.1
2018-Dec-14 11:33 156 21.1
2018-Dec-14 11:23 187 21.1
2018-Dec-14 11:13 186 21.1
2018-Dec-14 11:03 188 21.1
2018-Dec-14 10:53 192 20.6
2018-Dec-14 10:43 171 21.1
2018-Dec-14 10:33 240 20.6
2018-Dec-14 10:23 167 20.6
2018-Dec-14 10:13 192 20.6
2018-Dec-14 10:03 182 20.6
2018-Dec-14 09:53 182 20.6
2018-Dec-14 09:43 191 20.6
2018-Dec-14 09:33 173 20.6
2018-Dec-14 09:23 203 20.6
2018-Dec-14 09:13 182 0 gusting 6 20.6
2018-Dec-14 09:03 195 20.6
2018-Dec-14 08:53 193 0 gusting 6 20.6
2018-Dec-14 08:43 169 20.6
2018-Dec-14 08:33 171 0 gusting 6 20.6
2018-Dec-14 08:23 196 20.6
2018-Dec-14 08:13 220 20.6
2018-Dec-14 08:03 203 20.6
2018-Dec-14 07:53 222 20.6
2018-Dec-14 07:43 197 20.6
2018-Dec-14 07:33 205 20.6
2018-Dec-14 07:23 205 20.6
2018-Dec-14 07:13 223 20.6
2018-Dec-14 07:03 219 20.6
2018-Dec-14 06:53 201 20.6
2018-Dec-14 06:43 199 20.6
2018-Dec-14 06:33 207 20.6
2018-Dec-14 06:23 211 20.6
2018-Dec-14 06:13 197 21.1
2018-Dec-14 06:03 193 21.1
2018-Dec-14 05:53 172 21.1
2018-Dec-14 05:43 208 0 gusting 4 21.1
2018-Dec-14 05:33 208 21.1
2018-Dec-14 05:23 182 21.1
2018-Dec-14 05:13 234 21.1
2018-Dec-14 05:03 218 21.1
2018-Dec-14 04:53 200 21.7
2018-Dec-14 04:43 205 21.7
2018-Dec-14 04:33 217 21.7
2018-Dec-14 04:23 233 21.7
2018-Dec-14 04:13 243 22.2
2018-Dec-14 04:03 075 22.2
2018-Dec-14 03:53 196 22.2
2018-Dec-14 03:43 188 22.2
2018-Dec-14 03:33 186 0 gusting 4 22.2
2018-Dec-14 03:23 208 22.2
2018-Dec-14 03:13 234 0 gusting 6 22.2
2018-Dec-14 03:03 208 22.2
2018-Dec-14 02:53 174 22.2
2018-Dec-14 02:43 219 22.8
2018-Dec-14 02:33 192 22.8
2018-Dec-14 02:23 187 22.2
2018-Dec-14 02:13 163 22.2
2018-Dec-14 02:03 181 22.2
2018-Dec-14 01:53 219 21.7
2018-Dec-14 01:43 191 22.2
2018-Dec-14 01:33 339 22.2
2018-Dec-14 01:23 225 22.2
2018-Dec-14 01:13 184 22.2
2018-Dec-14 01:03 007 22.2
2018-Dec-14 00:53 215 21.7
2018-Dec-14 00:43 105 21.7
2018-Dec-14 00:33 091 21.7
2018-Dec-14 00:23 103 21.7
2018-Dec-14 00:13 080 21.7
2018-Dec-14 00:03 091 22.2
2018-Dec-13 23:53 045 22.2
2018-Dec-13 23:43 224 22.2
2018-Dec-13 23:33 319 22.2
2018-Dec-13 23:23 319 22.2
2018-Dec-13 23:13 319 22.2
2018-Dec-13 23:03 319 22.2
2018-Dec-13 22:53 319 22.2
2018-Dec-13 22:43 319 22.8
2018-Dec-13 22:33 319 22.8
2018-Dec-13 22:23 319 23.3
2018-Dec-13 22:13 319 23.3
2018-Dec-13 22:03 319 23.3
2018-Dec-13 21:53 319 23.9
2018-Dec-13 21:43 319 23.9
2018-Dec-13 21:33 319 23.9
2018-Dec-13 21:23 175 24.4
2018-Dec-13 21:13 177 24.4
2018-Dec-13 21:03 025 24.4
2018-Dec-13 20:53 220 24.4
2018-Dec-13 20:43 182 24.4
2018-Dec-13 20:33 221 24.4
2018-Dec-13 20:23 225 24.4
2018-Dec-13 20:13 001 24.4
2018-Dec-13 20:03 207 24.4
2018-Dec-13 19:53 184 24.4
2018-Dec-13 19:43 198 24.4
2018-Dec-13 19:33 221 25.0
2018-Dec-13 19:23 161 0 gusting 8 25.0
2018-Dec-13 19:13 215 25.0
2018-Dec-13 19:03 180 24.4
2018-Dec-13 18:53 190 24.4
2018-Dec-13 18:43 186 24.4
2018-Dec-13 18:33 205 24.4
2018-Dec-13 18:23 135 24.4
2018-Dec-13 18:13 169 23.9
2018-Dec-13 18:03 235 23.9
2018-Dec-13 17:53 167 23.3
2018-Dec-13 17:43 051 0 gusting 6 23.3
2018-Dec-13 17:33 144 23.3
2018-Dec-13 17:23 252 23.3
2018-Dec-13 17:13 197 23.3
2018-Dec-13 17:03 355 22.8
2018-Dec-13 16:53 166 0 gusting 6 22.8
2018-Dec-13 16:43 340 22.2
2018-Dec-13 16:33 264 22.2
2018-Dec-13 16:23 140 22.2
2018-Dec-13 16:13 061 22.2
2018-Dec-13 16:03 146 21.7
2018-Dec-13 15:53 155 21.7
2018-Dec-13 15:43 086 21.1
2018-Dec-13 15:33 239 21.1
2018-Dec-13 15:23 358 21.1
2018-Dec-13 15:13 200 20.6
2018-Dec-13 15:03 059 0 gusting 3 20.0
2018-Dec-13 14:53 091 19.4
2018-Dec-13 14:43 094 18.9
2018-Dec-13 14:33 095 17.8
2018-Dec-13 14:23 025 17.2
2018-Dec-13 14:13 132 16.7
2018-Dec-13 14:03 132 16.7
2018-Dec-13 13:53 098 16.1
2018-Dec-13 13:43 123 16.1
2018-Dec-13 13:33 136 16.1
2018-Dec-13 13:23 128 15.6
2018-Dec-13 13:13 113 15.6
2018-Dec-13 13:03 134 15.6
2018-Dec-13 12:53 086 15.0
2018-Dec-13 12:43 111 15.0
2018-Dec-13 12:33 074 14.4
2018-Dec-13 12:23 112 14.4
2018-Dec-13 12:13 115 14.4
2018-Dec-13 12:03 071 14.4
2018-Dec-13 11:53 133 14.4
2018-Dec-13 11:43 025 14.4
2018-Dec-13 11:33 121 13.9
2018-Dec-13 11:23 113 13.9
2018-Dec-13 11:13 113 13.9
2018-Dec-13 11:03 097 13.9
2018-Dec-13 10:53 120 13.9
2018-Dec-13 10:43 099 13.9
2018-Dec-13 10:33 303 13.9
2018-Dec-13 10:23 302 13.9
2018-Dec-13 10:13 302 13.9
2018-Dec-13 10:03 112 13.9
2018-Dec-13 09:53 061 13.9
2018-Dec-13 09:43 061 13.9
2018-Dec-13 09:33 058 13.3
2018-Dec-13 09:23 090 13.3
2018-Dec-13 09:13 090 13.3
2018-Dec-13 09:03 090 13.3
2018-Dec-13 08:53 090 13.3
2018-Dec-13 08:43 069 13.3
2018-Dec-13 08:33 145 13.3
2018-Dec-13 08:23 145 13.3
2018-Dec-13 08:13 068 13.3
2018-Dec-13 08:03 068 12.8
2018-Dec-13 07:53 049 12.8
2018-Dec-13 07:43 049 12.8
2018-Dec-13 07:33 049 12.8
2018-Dec-13 07:23 049 12.8
2018-Dec-13 07:13 049 12.8
2018-Dec-13 07:03 049 12.8
2018-Dec-13 06:53 049 12.8
2018-Dec-13 06:43 049 12.8
2018-Dec-13 06:33 049 12.8
2018-Dec-13 06:23 049 12.8
2018-Dec-13 06:13 049 12.8
2018-Dec-13 06:03 049 12.8
2018-Dec-13 05:53 049 12.8
2018-Dec-13 05:43 049 12.2
2018-Dec-13 05:33 049 12.2
2018-Dec-13 05:23 049 12.2
2018-Dec-13 05:13 049 12.2
2018-Dec-13 05:03 049 12.2
2018-Dec-13 04:53 049 12.2
2018-Dec-13 04:43 049 12.2
2018-Dec-13 04:33 049 12.2
2018-Dec-13 04:23 049 12.2
2018-Dec-13 04:13 049 12.2
2018-Dec-13 04:03 049 12.2
2018-Dec-13 03:53 049 11.7
2018-Dec-13 03:43 049 11.7
2018-Dec-13 03:33 049 11.7
2018-Dec-13 03:23 049 11.7
2018-Dec-13 03:13 049 11.7
2018-Dec-13 03:03 049 11.7
2018-Dec-13 02:53 049 11.7
2018-Dec-13 02:43 049 11.7
2018-Dec-13 02:33 049 11.7
2018-Dec-13 02:23 049 11.7
2018-Dec-13 02:13 049 11.7
2018-Dec-13 02:03 049 11.7
2018-Dec-13 01:53 049 12.2
2018-Dec-13 01:43 046 12.2
2018-Dec-13 01:33 046 12.2
2018-Dec-13 01:23 011 12.2
2018-Dec-13 01:13 306 12.2
2018-Dec-13 01:03 342 12.2
2018-Dec-13 00:53 346 12.2
2018-Dec-13 00:43 067 12.2
2018-Dec-13 00:33 068 12.8
2018-Dec-13 00:23 088 12.8
2018-Dec-13 00:13 088 12.8
2018-Dec-13 00:03 334 12.8
2018-Dec-12 23:53 308 12.8
2018-Dec-12 23:43 071 13.3
2018-Dec-12 23:33 336 13.3
2018-Dec-12 23:23 025 13.3
2018-Dec-12 23:13 025 13.3
2018-Dec-12 23:03 337 13.9
2018-Dec-12 22:53 325 13.9
2018-Dec-12 22:43 325 13.9
2018-Dec-12 22:33 325 14.4
2018-Dec-12 22:23 325 14.4
2018-Dec-12 22:13 325 15.0
2018-Dec-12 22:03 329 15.0
2018-Dec-12 21:53 007 15.0
2018-Dec-12 21:43 288 15.6
2018-Dec-12 21:33 030 15.6
2018-Dec-12 21:23 306 16.1
2018-Dec-12 21:13 267 16.1
2018-Dec-12 21:03 351 16.1
2018-Dec-12 20:53 303 16.7
2018-Dec-12 20:43 282 16.7
2018-Dec-12 20:33 311 0 gusting 4 17.2
2018-Dec-12 20:23 324 17.2
2018-Dec-12 20:13 025 17.8
2018-Dec-12 20:03 340 18.3
2018-Dec-12 19:53 263 18.3
2018-Dec-12 19:43 270 18.9
2018-Dec-12 19:33 270 18.9
2018-Dec-12 19:23 062 18.9
2018-Dec-12 19:13 047 18.9
2018-Dec-12 19:03 111 18.3
2018-Dec-12 18:53 113 18.3
2018-Dec-12 18:43 356 18.3
2018-Dec-12 18:33 043 17.8
2018-Dec-12 18:23 025 17.8
2018-Dec-12 18:13 093 17.2
2018-Dec-12 18:03 272 17.2